Home > Weather > Dubrovnik > Past weeks

Flag for Croatia Past Weather in Dubrovnik, Croatia — Yesterday and Last 2 Weeks

Now
82 °F

Passing clouds.


Feels Like: 86 °F
Forecast: 71 / 82 °F
Wind: 7 mph from Southwest

Location: Dubrovnik / Cilipi

Current Time: Jul 28, 2016 at 2:26:37 PM

Latest Report: Jul 28, 2016 at 2:00 PM


Visibility: N/A

Pressure: 29.98 "Hg

Humidity: 66%

Dew Point: 70 °F

Location of DubrovnikLocation

Past Weather in Dubrovnik — Graph

°F

Dubrovnik Temperature Yesterday

Maximum temperature yesterday: 86 °F (at 9:30 AM)
Minimum temperature yesterday: 72 °F (at 2:30 AM)
Average temperature yesterday: 79 °F

High & Low Weather Summary for the Past Weeks

 TemperatureHumidityPressure
High90 °F (Jul 13, 7:00 PM)100% (Jul 15, 6:00 PM)30.07 "Hg (Jul 15, 6:00 PM)
Low63 °F (Jul 16, 3:00 AM)27% (Jul 19, 5:00 PM)29.65 "Hg (Jul 15, 4:30 PM)
Average78 °F55%29.94 "Hg
* Reported Jul 13 12:00 PM — Jul 28 12:58 PM, Dubrovnik, Weather by CustomWeather, © 2016

Note: Actual official high and low records may vary slightly from our data, if they occured in-between our weather recording intervals... More about our weather records

Advertising

Dubrovnik Weather History for the Previous 24 Hours

Scroll right to see more
 ConditionsComfort  
Time TempWeatherWind HumidityBarometerVisibility
12:58 PM
Thu, Jul 28
82 °FPassing clouds.7 mph66%29.98 "HgN/A
12:30 PM82 °FPassing clouds.7 mph70%29.98 "HgN/A
12:00 PM82 °FPassing clouds.8 mph62%29.98 "HgN/A
11:30 AM82 °FPassing clouds.7 mph58%29.98 "HgN/A
11:00 AM82 °FPassing clouds.8 mph62%29.98 "HgN/A
10:30 AM84 °FPassing clouds.8 mph58%29.98 "HgN/A
10:00 AM84 °FPassing clouds.8 mph58%29.98 "HgN/A
9:30 AM84 °FSunny.2 mph51%29.95 "Hg10 mi
9:00 AM82 °FSunny.3 mph62%29.95 "Hg10 mi
8:30 AM81 °FPassing clouds.3 mph62%29.95 "HgN/A
8:00 AM79 °FPassing clouds.3 mph70%29.95 "HgN/A
7:30 AM79 °FSunny.2 mph61%29.95 "Hg10 mi
7:00 AM75 °FSunny.5 mph74%29.95 "Hg10 mi
6:30 AM72 °FClear.7 mph83%29.95 "Hg10 mi
6:00 AM73 °FClear.6 mph69%29.95 "Hg10 mi
5:30 AM73 °FClear.8 mph69%29.95 "Hg10 mi
5:00 AM72 °FClear.5 mph78%29.95 "Hg10 mi
4:30 AM70 °FClear.2 mph88%29.95 "Hg10 mi
4:00 AM72 °FPassing clouds.3 mph83%29.95 "HgN/A
3:30 AM72 °FClear.2 mph88%29.95 "Hg10 mi
3:00 AM73 °FClear.1 mph89%29.95 "Hg10 mi
2:30 AM75 °FClear.6 mph83%29.95 "Hg10 mi
2:00 AM79 °FClear.5 mph58%29.95 "Hg10 mi
1:30 AM77 °FPassing clouds.6 mph61%29.95 "HgN/A
1:00 AM81 °FPassing clouds.9 mph54%29.92 "HgN/A
12:30 AM79 °FClear.5 mph58%29.95 "Hg10 mi
12:00 AM81 °FClear.6 mph54%29.95 "Hg10 mi
11:30 PM
Wed, Jul 27
77 °FPassing clouds.5 mph69%29.95 "HgN/A
11:00 PM75 °FClear.9 mph94%29.95 "Hg10 mi
10:30 PM75 °FClear.9 mph89%29.95 "Hg10 mi
10:00 PM77 °FPassing clouds.8 mph79%29.95 "HgN/A
9:30 PM79 °FPassing clouds.3 mph65%29.95 "HgN/A
9:00 PM75 °FSunny.7 mph83%29.95 "Hg10 mi
8:30 PM77 °FSunny.7 mph79%29.92 "Hg10 mi
8:00 PM79 °FSunny.8 mph70%29.92 "Hg10 mi
7:30 PM81 °FSunny.10 mph58%29.92 "Hg10 mi
7:00 PM81 °FPassing clouds.9 mph66%29.92 "HgN/A
6:30 PM82 °FPassing clouds.10 mph58%29.92 "HgN/A
6:00 PM84 °FPassing clouds.9 mph55%29.92 "HgN/A
5:30 PM84 °FPassing clouds.8 mph51%29.92 "HgN/A
5:00 PM82 °FPassing clouds.9 mph58%29.92 "HgN/A
4:30 PM82 °FPassing clouds.7 mph62%29.92 "HgN/A
4:00 PM84 °FPassing clouds.6 mph58%29.95 "HgN/A
3:30 PM84 °FPassing clouds.7 mph58%29.95 "HgN/A
3:00 PM82 °FPassing clouds.6 mph62%29.95 "HgN/A
2:30 PM84 °FPassing clouds.7 mph58%29.95 "HgN/A
2:00 PM84 °FPassing clouds.7 mph62%29.95 "HgN/A
Weather by CustomWeather, © 2016

See weather overviewHow to use our weather pages